Preview of NWS' New Version of Forecast
This preview is not operational and should not be used for support decisions.

Regional Weather Roundup (RWR)

Issued by National Weather Service (NWS)

                            
000
ASUS46 KPQR 222310
RWROR 

OREGON REGIONAL WEATHER ROUNDUP
NATIONAL WEATHER SERVICE PORTLAND OR
400 PM PDT SAT JUN 22 2019

NOTE: "FAIR" INDICATES FEW OR NO CLOUDS BELOW 12,000 FEET WITH
NO SIGNIFICANT WEATHER AND/OR OBSTRUCTIONS TO VISIBILITY.

ORZ001>013-230000-
NORTHWEST OREGON

  
CITY           SKY/WX    TMP DP  RH WIND       PRES   REMARKS
ASTORIA        CLOUDY    61  51  70 W10       30.27S                  
TILLAMOOK      SUNNY     64  50  59 NW14      30.28S                  
NEWPORT        SUNNY     59  52  77 NW14      30.29F                  
PORTLAND       MOSUNNY   69  48  47 VRB5      30.22F                  
VANCOUVER WA   MOSUNNY   68  50  52 W7        30.22F                  
SCAPPOOSE      SUNNY     68  51  54 E7        30.21F                  
HILLSBORO      MOSUNNY   71  50  47 VRB5      30.20F                  
AURORA         MOSUNNY   71  48  43 NE6       30.21F                  
MCMINNVILLE    SUNNY     71  50  47 VRB3      30.20F                  
SALEM          SUNNY     72  47  40 N9        30.20F                  
CORVALLIS      SUNNY     75  53  46 E5        30.20F                  
EUGENE         MOSUNNY   76  48  37 N10G17    30.19F                  
$$

ORZ021-028-230000-
SOUTHWEST OREGON

  
CITY           SKY/WX    TMP DP  RH WIND       PRES   REMARKS
NORTH BEND     SUNNY     62  50  64 N24G31    30.25R                  
BROOKINGS      SUNNY     78  52  40 NW15G24   30.06F                  
ROSEBURG       SUNNY     80  48  32 N8        30.14F                  
SEXTON SUMMIT  SUNNY     70  40  33 MISG      30.21F                  
GRANTS PASS    FAIR      82  37  20 N9        30.14S                  
MEDFORD        SUNNY     83  44  25 VRB5      30.07F                  
$$

ORZ014>016-041-230000-
COLUMBIA GORGE

  
CITY           SKY/WX    TMP DP  RH WIND       PRES   REMARKS
TROUTDALE      SUNNY     68  49  50 VRB3      30.22F                  
HOOD RIVER     SUNNY     72  45  37 W9        30.13S                  
THE DALLES     SUNNY     77  45  32 NW22G31   30.05F                  
$$

ORZ029>031-041-044-049-050-061>064-502-503-505>511-230000-
EASTERN OREGON

  
CITY           SKY/WX    TMP DP  RH WIND       PRES   REMARKS
MADRAS         SUNNY     77  41  27 N9        30.13S                  
REDMOND        SUNNY     80  37  21 W10G21    30.11F                  
BEND           SUNNY     77  36  22 N14G24    30.12S                  
PRINEVILLE     SUNNY     75  37  25 NW12      30.11F                  
KLAMATH FALLS  SUNNY     74  36  25 W9        30.15F                  
LAKEVIEW       SUNNY     74  31  20 N8        30.17F                  
HERMISTON      PTSUNNY   84  45  25 SW13      29.99F                  
PENDLETON      CLOUDY    79  46  31 W10G18    30.03F                  
JOHN DAY       MOSUNNY   75  36  24 SW6       30.12F                  
MEACHAM        PTSUNNY   69  43  38 VRB3      30.12F                  
LA GRANDE      MOSUNNY   73  42  32 CALM      30.08F                  
BAKER CITY     MOSUNNY   74  46  36 NW6       30.10F                  
BURNS          LGT RAIN  75  38  26 SW13      30.13F                  
ROME             N/A     75  29  18 N9        30.12F                  
ONTARIO        SUNNY     80  38  22 S9        30.07F                  
$$